Main page
METAR-TAF:

METAR-TAF

Airports :

Tabas Airport

Tabas, Iran

latitude: 33-36N, longitude: 056-55E, elevation: 710 m

Current weather observation

The report was made 1 hour and 10 minutes ago, at 20:00 UTC
Wind 4 kt from the East
Temperature 10°C
Humidity 82%
Pressure 1017 hPa

METAR: OIMT 212000Z AUTO 08004KT //// // ////// 10/07 Q1017

Time: 00:40 (21:10 UTC)


TAF: missing

Weather observations and forecasts of more than 4000 airports (METAR and TAF reports).

The available stations are represented by yellow and red dots on the map.

Hover mouse over dot to see the name of the station.

Then click to see weather observations and forecasts.

To change the map : click on the green buttons with a black cross to zoom in, on the green button with a dash to zoom out, or on the green arrows for adjacent maps.


METAR-TAF: